Terug naar catalogus

SL-14 DEB

ActiefPO
NORAD 35523·DEBRIS·🇷🇺 Russia

Gelanceerd Aug 18, 1987 vanaf Plesetsk Cosmodrome

Loading…

Volgende Passages (komende 24 uur)

TLE

VersSource: Space-Track

Epoch: Sep 14, 2026, 03:00 UTC

1 35523U 87068CS  26257.12531343  .00000707  00000-0  37206-3 0  9996
2 35523  82.5165  32.7646 0010168 151.0168 209.1574 14.12832044641887

Volg SL-14 DEB in realtime met AllMySat

Download on the App Store